Starlink 6372

operational
NORAD ID: 57348 Int'l Des: 2023-099 Owner: SPXS Country: US Constellation: starlink
LEOCIRCULAR

Über Starlink 6372

Beschreibung wird geladen...

Live-Position

3D-Globus wird geladen...

Nächste Überflüge

Höhenverlauf

Altitude vs Time

uPlot chart will show altitude changes over time

Zweizeiliger Elementsatz

1 57348U 23099W 26033.40060403 .00000656 00000-0 63611-4 0 9999
2 57348 43.0039 80.2539 0001487 273.9641 86.1031 15.02536004140816
Epoch: 2. Feb. 2026 • Age: 17 hours

Aktueller Status

Höhe 565.8 km
Geschwindigkeit 7.58 km/s
Subsatellitenpunkt -28.79°S, 137.35°W
Startdatum 16. Juli 2023
Alter 2.5 years
Typ internet

Technische Details

Klassifizierung Payload
Masse 305.00 kg
Trockenmasse 290.00 kg
Gesamtmasse 305.00 kg
Länge 0.20 m
Durchmesser 2.80 m
Spannweite 9.00 m
Form Box + pan
Hersteller SPXS
Bus-Typ Starlink
Phasenstatus In Orbit
Besitzer/Staat SPXS/US

Große Konstellationen

Loading constellations...